This demonstration page uses our WeatherBlox Daily Observations layout. Learn more.

Left ArrowRight Arrow

44.8408, -93.29828

Hourly Observations for July 5, 2019

Temp ( °F °C ) Dew Point ( °F °C ) Humidity (%) Winds ( mph kmh ) Pressure ( in mb ) Visibility ( mi km ) Precip ( " mm )
12:53 am 00:53 Clear with Mist and Fog 71 21.7 67 19.4 87 87 NNE 5 7 29.97 1015 6 10 0.00 0.00
1:53 am 01:53 Clear 71 21.7 67 19.4 87 87 N 3 6 29.96 1015 7 11 0.00 0.00
2:53 am 02:53 Clear 70 21.1 66 18.9 87 87 Calm 29.97 1015 8 13 0.00 0.00
3:53 am 03:53 Clear with Mist and Fog 70 21.1 66 18.9 87 87 SE 3 6 29.95 1014 3 5 0.00 0.00
4:02 am 04:02 Clear with Mist and Fog 70 21.1 66 18.9 87 87 Calm 29.94 1014 3 4 0.00 0.00
4:37 am 04:37 Partly Cloudy with Mist and Fog 69 20.6 66 18.9 90 90 Calm 29.95 1014 5 8 0.00 0.00
4:53 am 04:53 Partly Cloudy with Mist and Fog 68 20 66 18.9 93 93 Calm 29.96 1015 5 8 0.00 0.00
5:53 am 05:53 Partly Cloudy with Mist and Fog 68 20 66 18.9 93 93 NW 3 6 29.98 1015 5 8 0.00 0.00
6:53 am 06:53 Mostly Cloudy with Mist and Fog 71 21.7 67 19.4 87 87 NW 5 7 30.02 1017 6 10 0.00 0.00
7:53 am 07:53 Mostly Cloudy with Haze 74 23.3 67 19.4 79 79 Calm 30.03 1017 6 10 0.00 0.00
8:53 am 08:53 Mostly Cloudy 76 24.4 68 20 77 77 Calm 30.04 1017 8 13 0.00 0.00
9:53 am 09:53 Cloudy 78 25.6 68 20 71 71 Calm 30.04 1017 8 13 0.00 0.00
10:53 am 10:53 Mostly Cloudy 80 26.7 68 20 67 67 N 3 6 30.04 1017 9 14 0.00 0.00
11:53 am 11:53 Mostly Cloudy 83 28.3 68 20 61 61 Calm 30.03 1017 10 16 0.00 0.00
12:53 pm 12:53 Mostly Cloudy 82 27.8 68 20 63 63 NE 7 11 30.00 1016 10 16 0.00 0.00
1:53 pm 13:53 Cloudy 80 26.7 66 18.9 62 62 NE 8 13 30.01 1016 10 16 0.00 0.00
2:53 pm 14:53 Cloudy 80 26.7 68 20 67 67 NE 9 15 30.01 1016 10 16 0.00 0.00
3:53 pm 15:53 Cloudy 79 26.1 67 19.4 67 67 E 10 17 30.01 1016 10 16 0.00 0.00
4:07 pm 16:07 Cloudy with Light Rain 76 24.4 70 21.1 82 82 E 16 26 29.97 1015 4 6 0.00 0.03
4:53 pm 16:53 Cloudy 77 25 69 20.6 77 77 ENE 9 15 30.00 1016 10 16 0.00 0.03
5:53 pm 17:53 Cloudy with Light Rain 76 24.4 70 21.1 82 82 N 10 17 30.00 1016 9 14 0.01 0.25
6:53 pm 18:53 Cloudy with Light Rain 75 23.9 69 20.6 82 82 N 9 15 30.03 1017 10 16 0.00 0.03
7:53 pm 19:53 Cloudy with Light Rain 74 23.3 69 20.6 85 85 N 13 20 30.04 1017 10 16 0.02 0.51
8:53 pm 20:53 Mostly Cloudy with Light Rain 72 22.2 66 18.9 82 82 NNE 10 17 30.04 1017 10 16 0.00 0.03
9:53 pm 21:53 Mostly Cloudy 71 21.7 65 18.3 81 81 N 10 17 30.06 1018 10 16 0.00 0.03
10:53 pm 22:53 Cloudy 71 21.7 65 18.3 81 81 NNE 9 15 30.07 1018 10 16 0.00 0.00
11:53 pm 23:53 Mostly Cloudy 70 21.1 64 17.8 82 82 N 12 19 30.06 1018 10 16 0.00 0.00

Powered by AerisWeather